Location: Newark
(14.4833°N, 101.9000°E)
Time: 12:46:47
(UTC+00:00)

Envisat - Visible Passes

Search period start: 24 September 2020 00:00
Search period end: 04 October 2020 00:00
Orbit: 764 x 766 km, 98.1° (Epoch: 23 September)

Date Brightness Start Highest point End Pass type
(mag) Time Alt. Az. Time Alt. Az. Time Alt. Az.
24 Sep 6.3 11:56:27 10° SW 11:58:45 13° W 12:01:05 10° WNW visible
24 Sep 4.4 22:38:11 10° NNE 22:43:02 46° E 22:47:52 10° S visible
25 Sep 6.0 22:03:04 10° ENE 22:06:14 17° E 22:09:22 10° SE visible
27 Sep 6.0 11:44:00 10° SW 11:47:23 18° W 11:50:47 10° WNW visible
27 Sep 5.0 22:27:07 10° NE 22:31:40 34° E 22:36:13 10° SSE visible
28 Sep 6.4 21:53:00 10° ENE 21:54:51 12° E 21:56:41 10° ESE visible
30 Sep 5.7 11:31:58 10° SSW 11:36:01 24° W 11:40:05 10° NW visible
30 Sep 5.6 22:16:12 10° NE 22:20:19 25° E 22:24:25 10° SSE visible
02 Oct 6.5 11:59:48 10° WSW 12:01:28 12° W 12:03:09 10° WNW visible
02 Oct 4.1 22:40:49 10° NNE 22:45:44 51° E 22:50:39 10° S visible
03 Oct 5.1 11:20:09 10° SSW 11:24:39 33° W 11:29:10 10° NW visible
03 Oct 6.0 22:05:28 10° NE 22:08:56 19° E 22:12:24 10° SE visible
